BAW522 EDDK-EGLL

Flight info

Callsign BAW522
Flight time 0h 52m
Altitude 32000
Route NVO2K NVO Y868 NAVAK DCT DENUT L608 LOGAN
Aircraft A320/M-SDE3FGHIRWY/LB1

Departure

Time 2026-04-30 19:09
Airport Cologne Bonn Airport (EDDK)

Arrival

Time 2026-04-30 20:01
Airport London Heathrow Airport (EGLL)
Time Latitude Longitude Altitude Speed Heading
2026-04-30 18:40 50.88332 7.11681 230 ft 0 kts 343°
2026-04-30 18:58 50.88292 7.11695 230 ft 4 kts 351°
2026-04-30 18:58 50.88267 7.11692 230 ft 4 kts 26°
2026-04-30 18:58 50.88257 7.11683 232 ft 0 kts 35°
2026-04-30 19:02 50.88270 7.11704 232 ft 3 kts 51°
2026-04-30 19:02 50.88309 7.11837 232 ft 7 kts 73°
2026-04-30 19:03 50.88294 7.11948 230 ft 5 kts 115°
2026-04-30 19:03 50.88244 7.12107 230 ft 10 kts 127°
2026-04-30 19:04 50.88173 7.12282 230 ft 9 kts 114°
2026-04-30 19:04 50.88105 7.12468 230 ft 11 kts 134°
2026-04-30 19:05 50.88003 7.12622 230 ft 7 kts 132°
2026-04-30 19:05 50.87991 7.12715 233 ft 5 kts 78°
2026-04-30 19:06 50.87997 7.12754 234 ft 3 kts 76°
2026-04-30 19:06 50.87998 7.12761 234 ft 0 kts 76°
2026-04-30 19:07 50.88010 7.12836 236 ft 4 kts 84°
2026-04-30 19:07 50.88014 7.12907 237 ft 5 kts 84°
2026-04-30 19:08 50.88002 7.12971 238 ft 0 kts 135°
2026-04-30 19:08 50.87665 7.13462 247 ft 95 kts 137°
2026-04-30 19:08 50.87032 7.14377 257 ft 149 kts 137°
2026-04-30 19:09 50.85349 7.16812 1366 ft 160 kts 136°
2026-04-30 19:09 50.84478 7.18012 1880 ft 175 kts 135°
2026-04-30 19:09 50.83510 7.19366 2215 ft 199 kts 134°
2026-04-30 19:10 50.81399 7.22333 3871 ft 202 kts 136°
2026-04-30 19:10 50.78944 7.24417 5390 ft 218 kts 179°
2026-04-30 19:11 50.77415 7.23916 6067 ft 232 kts 198°
2026-04-30 19:11 50.75284 7.19937 7409 ft 261 kts 253°
2026-04-30 19:11 50.75116 7.17051 8086 ft 271 kts 271°
2026-04-30 19:12 50.75481 7.14009 8446 ft 294 kts 289°
2026-04-30 19:12 50.76155 7.10887 9022 ft 305 kts 281°
2026-04-30 19:12 50.76472 7.07557 9794 ft 309 kts 274°
2026-04-30 19:13 50.76722 7.00569 10817 ft 337 kts 271°
2026-04-30 19:13 50.77013 6.92662 11144 ft 384 kts 273°
2026-04-30 19:13 50.77236 6.88353 11272 ft 405 kts 274°
2026-04-30 19:14 50.77501 6.83827 11529 ft 419 kts 275°
2026-04-30 19:14 50.77785 6.79284 12039 ft 424 kts 275°
2026-04-30 19:14 50.78082 6.74624 12629 ft 428 kts 275°
2026-04-30 19:14 50.78379 6.69925 13235 ft 432 kts 275°
2026-04-30 19:15 50.78671 6.65179 13834 ft 435 kts 275°
2026-04-30 19:15 50.79241 6.55583 14895 ft 441 kts 275°
2026-04-30 19:15 50.79519 6.50735 15408 ft 444 kts 275°
2026-04-30 19:16 50.79795 6.45875 15892 ft 446 kts 275°
2026-04-30 19:16 50.80072 6.40977 16367 ft 449 kts 275°
2026-04-30 19:16 50.80628 6.31066 17241 ft 455 kts 275°
2026-04-30 19:17 50.80905 6.26058 17679 ft 458 kts 275°
2026-04-30 19:17 50.81464 6.15980 18527 ft 463 kts 275°
2026-04-30 19:17 50.81747 6.10886 18867 ft 466 kts 275°
2026-04-30 19:18 50.82115 6.04090 19320 ft 469 kts 275°
2026-04-30 19:18 50.82566 5.95533 19886 ft 472 kts 275°
2026-04-30 19:18 50.83083 5.90380 20212 ft 473 kts 283°
2026-04-30 19:19 50.83979 5.85376 20535 ft 475 kts 287°
2026-04-30 19:19 50.84944 5.80365 20824 ft 477 kts 287°
2026-04-30 19:19 50.86871 5.70295 21408 ft 480 kts 287°
2026-04-30 19:20 50.87833 5.65226 21693 ft 481 kts 287°
2026-04-30 19:20 50.88793 5.60153 21952 ft 483 kts 287°
2026-04-30 19:20 50.90723 5.49889 22462 ft 486 kts 287°
2026-04-30 19:21 50.91686 5.44753 22719 ft 488 kts 287°
2026-04-30 19:21 50.93620 5.34418 23182 ft 491 kts 287°
2026-04-30 19:22 50.95559 5.24011 23628 ft 493 kts 287°
2026-04-30 19:22 50.98446 5.08349 24406 ft 492 kts 286°
2026-04-30 19:23 51.01297 4.92741 25201 ft 490 kts 286°
2026-04-30 19:24 51.03178 4.82376 25757 ft 488 kts 286°
2026-04-30 19:24 51.03802 4.78939 25946 ft 488 kts 286°
2026-04-30 19:24 51.05664 4.68601 26510 ft 487 kts 285°
2026-04-30 19:25 51.08432 4.53080 27386 ft 485 kts 285°
2026-04-30 19:26 51.10264 4.42790 28021 ft 483 kts 285°
2026-04-30 19:26 51.12088 4.32503 28657 ft 482 kts 285°
2026-04-30 19:26 51.12997 4.27359 29014 ft 481 kts 285°
2026-04-30 19:27 51.14790 4.17125 29677 ft 479 kts 284°
2026-04-30 19:27 51.16558 4.06908 30340 ft 478 kts 284°
2026-04-30 19:28 51.17440 4.01810 30623 ft 477 kts 284°
2026-04-30 19:28 51.19191 3.91696 31171 ft 475 kts 284°
2026-04-30 19:29 51.20937 3.81554 31728 ft 474 kts 284°
2026-04-30 19:29 51.21804 3.76485 32012 ft 474 kts 284°
2026-04-30 19:30 51.25154 3.61582 32248 ft 483 kts 300°
2026-04-30 19:31 51.32024 3.43101 32250 ft 484 kts 300°
2026-04-30 19:31 51.36457 3.28621 32247 ft 484 kts 290°
2026-04-30 19:32 51.38837 3.18548 32241 ft 484 kts 289°
2026-04-30 19:32 51.41214 3.08445 32245 ft 484 kts 289°
2026-04-30 19:33 51.43591 2.98334 32244 ft 485 kts 289°
2026-04-30 19:33 51.45948 2.88287 32246 ft 485 kts 289°
2026-04-30 19:34 51.48316 2.78150 32238 ft 485 kts 289°
2026-04-30 19:35 51.51841 2.62936 32238 ft 486 kts 289°
2026-04-30 19:35 51.54183 2.52739 32238 ft 486 kts 289°
2026-04-30 19:36 51.56509 2.42552 32241 ft 485 kts 289°
2026-04-30 19:36 51.59982 2.27266 32249 ft 485 kts 288°
2026-04-30 19:37 51.62294 2.17092 31849 ft 482 kts 288°
2026-04-30 19:37 51.63442 2.12022 30833 ft 483 kts 288°
2026-04-30 19:37 51.64596 2.06921 29782 ft 485 kts 288°
2026-04-30 19:38 51.65752 2.01791 29115 ft 488 kts 288°
2026-04-30 19:38 51.66907 1.96639 28453 ft 490 kts 288°
2026-04-30 19:38 51.68063 1.91461 27822 ft 492 kts 288°
2026-04-30 19:38 51.69222 1.86257 27198 ft 495 kts 288°
2026-04-30 19:39 51.70382 1.81035 26587 ft 496 kts 288°
2026-04-30 19:39 51.71527 1.75855 25985 ft 497 kts 288°
2026-04-30 19:39 51.72703 1.70517 25450 ft 498 kts 288°
2026-04-30 19:39 51.73701 1.65175 24913 ft 498 kts 281°
2026-04-30 19:40 51.74226 1.59679 24298 ft 493 kts 272°
2026-04-30 19:40 51.74274 1.54251 23687 ft 488 kts 265°
2026-04-30 19:40 51.73958 1.48755 22973 ft 482 kts 262°
2026-04-30 19:40 51.73621 1.43487 22307 ft 477 kts 262°
2026-04-30 19:41 51.73280 1.38192 21631 ft 472 kts 262°
2026-04-30 19:41 51.72940 1.32961 20977 ft 467 kts 262°
2026-04-30 19:41 51.72597 1.27761 20332 ft 463 kts 262°
2026-04-30 19:41 51.72256 1.22641 19699 ft 458 kts 262°
2026-04-30 19:42 51.71916 1.17555 19086 ft 454 kts 262°
2026-04-30 19:42 51.71578 1.12511 18474 ft 449 kts 262°
2026-04-30 19:42 51.71241 1.07519 17784 ft 445 kts 262°
2026-04-30 19:42 51.70904 1.02582 17114 ft 441 kts 261°
2026-04-30 19:43 51.70567 0.97687 16446 ft 438 kts 261°
2026-04-30 19:43 51.70232 0.92807 15800 ft 435 kts 261°
2026-04-30 19:43 51.69898 0.87984 15353 ft 433 kts 261°
2026-04-30 19:44 51.69239 0.78560 14539 ft 414 kts 261°
2026-04-30 19:44 51.68922 0.74046 14145 ft 406 kts 261°
2026-04-30 19:44 51.68606 0.69567 13714 ft 398 kts 261°
2026-04-30 19:44 51.68293 0.65173 13270 ft 391 kts 261°
2026-04-30 19:45 51.67982 0.60871 12833 ft 384 kts 260°
2026-04-30 19:45 51.67677 0.56638 12397 ft 377 kts 260°
2026-04-30 19:45 51.67380 0.52489 11974 ft 370 kts 260°
2026-04-30 19:45 51.67084 0.48391 11556 ft 364 kts 260°
2026-04-30 19:46 51.66790 0.44382 11146 ft 359 kts 260°
2026-04-30 19:46 51.66499 0.40423 10738 ft 353 kts 260°
2026-04-30 19:46 51.66209 0.36527 10331 ft 348 kts 260°
2026-04-30 19:46 51.65922 0.32689 9908 ft 343 kts 260°
2026-04-30 19:47 51.65638 0.28897 9469 ft 338 kts 260°
2026-04-30 19:47 51.65453 0.26427 9178 ft 335 kts 260°
2026-04-30 19:47 51.65077 0.21477 8596 ft 330 kts 260°
2026-04-30 19:47 51.64799 0.17822 8170 ft 326 kts 260°
2026-04-30 19:48 51.64527 0.14232 7753 ft 322 kts 260°
2026-04-30 19:48 51.64256 0.10686 7347 ft 318 kts 260°
2026-04-30 19:48 51.63988 0.07224 7204 ft 304 kts 260°
2026-04-30 19:48 51.63741 0.03947 7213 ft 288 kts 260°
2026-04-30 19:49 51.63516 0.00751 7219 ft 285 kts 263°
2026-04-30 19:49 51.63665 -0.05636 7261 ft 286 kts 271°
2026-04-30 19:49 51.63799 -0.08795 7265 ft 286 kts 271°
2026-04-30 19:50 51.63936 -0.11990 7271 ft 286 kts 271°
2026-04-30 19:50 51.64072 -0.15180 7273 ft 286 kts 271°
2026-04-30 19:50 51.64211 -0.18374 7275 ft 286 kts 271°
2026-04-30 19:50 51.64345 -0.21563 7275 ft 286 kts 271°
2026-04-30 19:51 51.64481 -0.24760 7272 ft 286 kts 271°
2026-04-30 19:51 51.64618 -0.27936 7144 ft 283 kts 271°
2026-04-30 19:51 51.64757 -0.31068 7010 ft 270 kts 271°
2026-04-30 19:51 51.64889 -0.33979 6884 ft 258 kts 271°
2026-04-30 19:52 51.65017 -0.36795 6750 ft 248 kts 271°
2026-04-30 19:52 51.65140 -0.39533 6480 ft 243 kts 271°
2026-04-30 19:52 51.65260 -0.42247 6084 ft 241 kts 268°
2026-04-30 19:52 51.65250 -0.44927 5772 ft 238 kts 264°
2026-04-30 19:53 51.65200 -0.47582 5480 ft 236 kts 264°
2026-04-30 19:53 51.65154 -0.50200 5186 ft 235 kts 264°
2026-04-30 19:53 51.65105 -0.52842 4933 ft 233 kts 264°
2026-04-30 19:53 51.65060 -0.55446 4703 ft 233 kts 264°
2026-04-30 19:54 51.65018 -0.58064 4474 ft 234 kts 264°
2026-04-30 19:54 51.64984 -0.60700 4245 ft 235 kts 264°
2026-04-30 19:54 51.64957 -0.63334 4017 ft 237 kts 264°
2026-04-30 19:54 51.64928 -0.65999 3802 ft 238 kts 261°
2026-04-30 19:55 51.64467 -0.68439 3570 ft 223 kts 227°
2026-04-30 19:55 51.63333 -0.69956 3348 ft 209 kts 198°
2026-04-30 19:55 51.61978 -0.70770 3124 ft 208 kts 192°
2026-04-30 19:55 51.60598 -0.71471 2883 ft 208 kts 191°
2026-04-30 19:56 51.59204 -0.72065 2655 ft 204 kts 180°
2026-04-30 19:56 51.57820 -0.72048 2541 ft 202 kts 172°
2026-04-30 19:56 51.56398 -0.71876 2516 ft 202 kts 171°
2026-04-30 19:56 51.55019 -0.71690 2514 ft 201 kts 171°
2026-04-30 19:57 51.53627 -0.71493 2512 ft 200 kts 168°
2026-04-30 19:57 51.52306 -0.71155 2507 ft 185 kts 164°
2026-04-30 19:57 51.51084 -0.70662 2507 ft 178 kts 161°
2026-04-30 19:57 51.49904 -0.70112 2508 ft 176 kts 157°
2026-04-30 19:58 51.48846 -0.69160 2472 ft 174 kts 139°
2026-04-30 19:58 51.48077 -0.67679 2356 ft 175 kts 120°
2026-04-30 19:58 51.47695 -0.65851 2216 ft 171 kts 102°
2026-04-30 19:58 51.47672 -0.63962 1985 ft 166 kts 95°
2026-04-30 19:59 51.47685 -0.62171 1756 ft 154 kts 94°
2026-04-30 19:59 51.47694 -0.60516 1570 ft 145 kts 94°
2026-04-30 19:59 51.47709 -0.57338 1183 ft 141 kts 92°
2026-04-30 20:00 51.47716 -0.55788 998 ft 141 kts 90°
2026-04-30 20:00 51.47723 -0.54229 829 ft 140 kts 91°
2026-04-30 20:00 51.47732 -0.52643 618 ft 141 kts 89°
2026-04-30 20:00 51.47737 -0.51074 463 ft 143 kts 88°
2026-04-30 20:01 51.47754 -0.47931 94 ft 137 kts 88°
2026-04-30 20:01 51.47759 -0.46579 89 ft 101 kts 90°
2026-04-30 20:01 51.47761 -0.45739 84 ft 43 kts 90°
2026-04-30 20:02 51.47687 -0.45470 88 ft 9 kts 178°
2026-04-30 20:02 51.47644 -0.45469 86 ft 4 kts 179°
2026-04-30 20:03 51.47596 -0.45614 86 ft 8 kts 269°
2026-04-30 20:03 51.47596 -0.45698 87 ft 7 kts 270°
2026-04-30 20:03 51.47596 -0.45773 86 ft 6 kts 270°
2026-04-30 20:03 51.47596 -0.45856 86 ft 10 kts 270°
2026-04-30 20:04 51.47596 -0.45971 86 ft 10 kts 269°
2026-04-30 20:04 51.47596 -0.46074 86 ft 9 kts 269°
2026-04-30 20:04 51.47595 -0.46182 90 ft 9 kts 269°
2026-04-30 20:05 51.47593 -0.46371 86 ft 9 kts 269°
2026-04-30 20:05 51.47594 -0.46517 90 ft 17 kts 271°
2026-04-30 20:05 51.47587 -0.46864 87 ft 12 kts 260°
2026-04-30 20:06 51.47583 -0.46988 90 ft 11 kts 270°
2026-04-30 20:06 51.47584 -0.47145 90 ft 17 kts 271°
2026-04-30 20:06 51.47582 -0.47352 86 ft 20 kts 269°
2026-04-30 20:06 51.47581 -0.47583 86 ft 21 kts 269°
2026-04-30 20:07 51.47581 -0.47826 90 ft 22 kts 270°
2026-04-30 20:07 51.47579 -0.48074 90 ft 22 kts 269°
2026-04-30 20:07 51.47553 -0.48356 86 ft 7 kts 204°
2026-04-30 20:08 51.47484 -0.48360 86 ft 13 kts 178°
2026-04-30 20:08 51.47386 -0.48359 86 ft 15 kts 180°
2026-04-30 20:08 51.47300 -0.48362 86 ft 6 kts 186°
2026-04-30 20:08 51.47274 -0.48405 88 ft 6 kts 251°
2026-04-30 20:09 51.47271 -0.48458 87 ft 4 kts 268°
2026-04-30 20:09 51.47271 -0.48500 86 ft 2 kts 272°
2026-04-30 20:09 51.47271 -0.48557 88 ft 4 kts 270°
2026-04-30 20:10 51.47271 -0.48585 86 ft 0 kts 269°